EHI
66 80 62 19 0 0 0 0 0 0 2 7 13 12 8 5 2 1 0 0 0 0 0 0 0 0 0 0 0 0 0 0 0 0 0 0 0 0 0 0 0 0 0
76 81 58 17 0 0 0 0 0 0 1 5 11 13 11 7 4 1 0 0 0 0 0 0 0 0 0 0 0 0 0 0 0 0 0 0 0 0 0 0 0 0 0
80 76 46 11 0 0 0 0 0 0 0 3 8 12 12 8 4 1 0 0 0 0 0 0 0 0 0 0 0 0 0 0 0 0 0 0 0 0 0 0 0 0 0
60 59 34 8 0 0 0 0 0 0 0 1 4 6 7 5 2 1 0 0 0 0 0 0 0 0 0 0 0 0 0 0 0 0 0 0 0 0 0 0 0 0 0
30 35 29 11 1 0 0 0 0 0 0 0 1 1 2 1 1 0 0 0 0 0 0 0 0 0 0 0 0 0 0 0 0 0 0 0 0 0 0 0 0 0 0
9 18 24 14 2 0 0 0 0 0 0 0 0 0 0 0 0 0 0 0 0 0 0 0 0 0 0 0 0 0 0 0 0 0 0 0 0 0 0 0 0 0 0
1 10 20 16 6 2 1 0 0 0 0 0 0 0 0 0 0 0 0 0 0 0 0 0 0 0 0 0 0 0 0 0 0 0 0 0 0 0 0 0 0 0 0
0 7 17 17 12 9 5 2 0 0 0 0 0 0 0 0 0 0 0 0 0 0 0 0 0 0 0 0 0 0 0 0 0 0 0 1 2 1 0 0 0 0 0
5 8 13 17 18 20 19 15 10 6 3 1 0 0 0 0 0 0 0 0 0 0 0 0 0 0 0 0 0 0 0 0 0 0 0 5 9 5 0 0 0 0 0
23 19 17 22 32 38 40 41 36 26 16 9 6 3 1 0 0 0 1 2 2 1 1 0 0 0 0 0 0 0 0 0 0 0 1 10 17 8 0 0 0 0 0
42 32 23 30 45 52 57 65 64 54 42 31 24 19 12 5 2 2 10 16 11 3 2 1 1 0 0 0 0 0 0 0 0 0 5 18 22 9 0 0 0 0 0
34 25 19 27 40 49 58 70 75 71 64 54 45 43 39 30 22 20 31 39 24 8 4 3 2 1 1 4 4 3 1 1 1 0 10 27 26 9 0 0 0 0 0
12 9 9 15 24 33 46 60 69 71 70 64 57 59 65 65 58 51 55 55 39 25 19 17 13 8 7 12 12 6 1 2 2 3 17 35 28 9 1 1 0 0 0
8 7 6 10 15 20 30 45 55 59 59 59 58 60 69 76 71 66 64 57 47 42 40 37 30 20 17 19 14 5 1 2 2 6 21 35 27 9 2 1 0 0 0
17 14 10 9 12 15 23 35 43 45 43 44 46 47 52 58 56 54 54 48 39 37 41 41 32 24 22 18 10 3 1 1 3 6 15 23 18 8 3 2 1 0 0
19 15 9 7 9 14 20 28 33 33 31 29 29 28 30 34 36 36 36 31 23 21 26 26 20 17 17 10 4 1 0 1 3 4 5 7 7 5 4 4 4 3 2
13 11 8 7 10 13 16 19 22 23 23 22 20 16 14 16 21 24 23 16 11 11 14 16 14 11 8 3 1 1 1 2 2 2 1 0 1 1 3 5 6 6 4
12 11 11 10 11 12 12 13 13 15 16 15 13 11 9 8 11 16 16 11 6 5 7 12 13 9 4 1 1 2 2 3 2 1 0 0 0 0 1 2 4 4 4
12 11 10 9 9 10 9 8 8 8 10 9 6 6 8 7 9 14 17 12 7 4 4 8 10 8 3 1 1 1 1 2 2 1 0 0 0 0 0 0 1 1 1
6 6 5 5 5 6 5 5 5 5 6 6 4 5 8 8 12 18 18 12 7 4 2 4 5 4 2 1 0 0 0 0 1 1 0 0 0 0 0 0 0 0 0
1 1 1 1 1 2 2 3 3 4 5 4 3 4 7 9 13 17 14 9 5 3 2 2 2 1 1 0 0 0 0 0 0 0 0 0 0 0 0 0 0 0 0
0 0 0 0 0 0 1 1 1 2 2 2 1 2 4 6 9 11 12 9 4 2 1 1 0 0 0 0 0 0 0 0 0 0 0 0 0 0 0 0 0 0 0
0 0 0 0 0 0 0 0 0 0 0 0 0 0 0 2 3 6 8 9 7 4 2 1 0 0 0 0 0 0 0 0 0 0 0 0 0 0 0 0 0 0 0
0 0 0 0 0 0 0 0 0 0 0 0 0 0 0 0 1 2 5 9 12 11 7 4 1 0 0 0 0 0 0 0 0 0 0 0 0 0 0 0 0 0 0
0 0 0 0 0 0 0 0 0 0 0 0 0 0 0 0 0 1 2 6 13 16 15 12 8 3 1 0 0 0 0 0 0 0 0 0 0 0 0 0 0 0 0
0 0 0 0 0 0 0 0 0 0 0 0 0 0 0 0 0 0 1 3 9 15 19 21 16 8 3 1 0 0 0 0 0 0 0 0 0 0 0 0 0 0 0
Wind_Speed
13 18 21 17 16 15 14 12 11 11 12 14 14 14 14 13 13 13 12 11 10 10 9 8 8 8 7 7 7 8 9 9 9 9 9 9 8 8 8 8 7 9 12
15 19 20 17 16 14 13 13 11 11 11 12 13 13 13 12 12 12 11 10 10 9 8 8 8 7 7 7 7 8 8 9 8 8 9 10 9 8 8 5 2 9 10
17 19 19 16 15 13 12 12 11 10 10 11 11 12 12 11 11 11 10 10 9 9 8 7 7 7 6 6 6 7 7 7 7 8 9 8 10 8 7 5 6 10 9
17 17 16 17 14 13 12 11 11 10 10 10 10 11 11 10 10 9 9 9 9 8 8 7 7 7 6 6 6 6 6 6 7 8 8 5 8 11 7 6 7 8 9
15 15 16 17 14 13 12 10 10 10 10 9 10 10 10 10 9 9 9 9 9 9 8 7 6 7 7 6 6 6 7 7 6 10 5 4 5 11 8 7 7 8 8
15 15 18 16 15 13 12 11 10 10 10 10 10 10 10 10 10 10 10 9 8 8 7 7 6 7 7 7 6 5 5 6 8 9 6 5 5 11 9 9 8 8 8
14 13 18 16 15 14 13 12 11 11 10 10 10 10 10 10 10 10 10 10 9 8 7 6 6 6 7 7 7 7 6 6 10 6 5 6 4 9 9 10 10 9 9
13 12 16 15 15 15 14 13 12 11 11 11 11 11 10 9 9 8 8 8 7 7 7 7 7 7 7 7 8 8 8 10 11 8 7 7 8 7 8 10 11 11 11
13 12 13 15 15 15 14 14 13 13 12 12 12 12 11 10 10 9 8 8 8 8 8 8 9 9 9 9 9 10 10 11 13 8 9 7 11 9 10 11 12 12 12
12 12 11 12 13 14 15 16 15 15 15 14 14 14 13 13 12 12 12 12 11 11 11 11 11 11 11 12 12 12 12 11 14 12 8 6 12 11 11 13 14 14 14
11 11 11 12 12 12 12 14 16 16 16 16 15 16 15 13 14 13 15 13 13 13 13 13 13 13 13 14 15 14 12 9 11 9 6 5 11 11 13 13 14 16 16
14 13 11 11 11 11 9 9 10 11 12 13 11 13 12 11 9 10 9 12 14 14 15 15 14 13 13 10 13 14 9 11 10 7 6 8 10 12 14 13 12 15 17
13 11 10 8 6 7 6 6 5 5 7 10 12 12 10 8 7 8 6 8 12 14 13 12 14 12 11 9 7 8 8 8 6 7 7 12 13 14 15 14 13 12 15
7 5 2 1 2 4 5 4 4 5 5 6 8 10 9 6 8 7 6 7 7 7 8 9 7 10 11 10 10 10 9 7 7 6 6 11 12 14 15 14 14 14 13
2 3 4 5 3 3 4 5 5 5 6 7 7 8 10 8 9 8 7 7 9 8 8 8 9 10 10 11 10 11 11 10 10 9 6 11 14 15 16 15 15 15 14
7 6 6 5 5 4 4 5 5 6 6 7 7 10 11 9 9 8 8 8 9 8 7 7 9 8 9 9 12 13 13 12 11 10 10 10 15 15 15 14 15 16 16
7 6 6 5 5 5 5 5 5 5 6 6 6 8 8 8 8 8 7 8 8 7 7 7 9 8 8 9 12 12 11 12 11 11 12 10 11 16 15 14 14 14 15
6 6 6 6 6 5 5 5 4 4 4 4 5 4 5 6 7 7 7 8 7 6 6 7 8 7 8 8 9 9 9 8 11 12 12 11 10 9 13 16 14 13 14
7 6 6 6 6 6 5 4 4 3 4 4 4 3 4 6 6 6 7 7 6 6 6 7 6 6 7 8 8 8 8 8 9 11 11 12 10 8 8 12 15 13 14
6 6 6 6 7 7 6 4 4 4 4 3 3 4 6 5 7 7 6 7 6 5 6 6 6 6 7 7 8 7 6 7 8 9 10 10 9 10 10 9 10 13 16
8 8 8 9 8 7 7 7 7 6 5 5 4 5 6 6 6 6 6 5 6 6 6 7 6 8 8 6 6 7 7 9 9 8 8 9 9 9 9 9 9 8 9
9 8 8 9 9 8 7 5 5 6 6 5 5 5 7 7 7 6 6 6 6 5 7 7 7 7 6 6 6 6 7 8 8 9 8 9 9 9 10 10 9 8 8
8 9 8 8 8 8 7 6 5 5 5 5 6 5 7 8 7 7 7 7 6 7 6 8 8 10 8 7 7 7 6 5 3 5 7 7 7 7 7 7 8 8 8
9 9 9 9 9 8 8 8 9 7 7 7 6 6 7 7 7 7 6 6 7 7 7 9 9 8 9 8 7 7 8 6 5 3 6 7 8 7 7 5 7 8 8
11 11 10 10 10 10 9 9 9 10 9 7 7 6 7 5 5 6 6 6 6 6 7 9 8 10 8 9 8 6 7 6 8 7 4 5 7 8 7 7 7 6 6
12 12 12 12 12 12 12 11 11 12 11 11 10 9 7 6 4 4 4 4 5 5 6 7 8 11 10 10 8 7 6 7 7 7 7 6 5 5 5 5 6 5 5
Wind_Direction
151 143 147 157 160 157 152 148 146 150 159 161 160 160 161 160 155 152 152 153 153 154 153 149 145 142 143 142 135 124 119 120 126 132 134 129 125 121 123 134 167 125 114
145 140 148 157 160 159 154 149 147 148 154 158 159 158 158 158 155 154 154 157 158 158 154 149 144 139 136 135 132 129 129 132 138 145 146 140 133 128 129 139 2 106 130
142 140 151 155 158 159 155 151 149 149 150 153 155 155 155 156 156 156 158 161 164 164 161 155 149 142 139 137 136 136 139 145 154 162 181 169 138 139 138 131 103 124 139
144 144 151 149 156 157 156 154 152 153 153 155 157 157 157 158 160 163 166 169 171 171 164 159 159 154 149 149 150 152 157 166 178 189 201 162 146 140 152 148 140 144 147
142 142 139 150 155 157 158 158 159 160 160 162 164 165 166 168 173 176 177 179 180 172 162 160 164 160 157 162 169 173 181 192 196 221 185 163 138 145 161 165 160 157 154
144 148 139 153 154 157 161 164 167 169 169 171 173 175 177 180 184 186 186 188 186 171 164 165 170 167 165 172 185 193 197 200 214 216 171 186 157 153 172 179 180 174 168
150 145 142 155 156 158 164 170 174 176 177 179 180 183 186 188 191 192 192 193 192 181 176 180 186 188 185 187 194 202 211 215 241 228 190 201 150 136 181 189 194 191 182
147 147 142 155 160 162 166 173 179 182 185 187 187 189 193 195 198 199 198 195 194 189 190 198 206 208 209 207 207 209 212 227 227 227 224 217 139 152 198 200 202 202 194
152 152 154 164 167 170 173 177 182 186 190 194 195 195 196 199 203 206 208 211 212 212 211 212 215 217 216 216 217 217 218 227 256 231 226 224 148 178 213 216 208 209 206
157 159 161 175 175 180 181 183 187 190 193 196 200 201 202 204 208 211 215 210 217 219 221 221 221 222 222 221 220 219 220 222 242 243 228 197 153 191 219 226 215 212 212
162 169 174 177 182 191 193 183 191 196 198 199 202 205 207 213 210 205 217 205 214 224 228 229 228 227 228 225 225 224 224 231 238 254 247 164 164 202 223 230 221 214 213
170 178 182 189 188 199 203 190 202 206 202 209 213 208 213 223 230 229 195 201 220 229 234 236 238 237 234 234 219 215 226 226 238 237 227 177 187 213 226 230 226 218 213
175 183 190 197 207 220 216 215 212 219 216 218 222 222 226 230 235 240 226 208 221 227 234 228 226 233 232 231 232 220 229 238 232 234 222 182 200 219 228 229 228 225 217
172 178 185 10 324 301 293 270 252 246 236 235 230 230 229 229 233 233 235 235 231 230 233 243 238 236 240 239 232 232 229 232 242 245 228 189 206 221 228 227 226 229 224
79 37 15 0 346 324 300 286 270 265 262 253 244 242 238 236 236 233 235 238 242 241 235 236 245 244 241 237 234 231 233 233 238 242 241 212 218 225 227 225 223 227 228
21 10 3 354 349 329 301 286 282 276 269 267 256 250 246 246 245 243 242 241 244 245 247 247 247 248 246 243 239 234 232 234 234 235 242 234 223 222 222 222 219 221 223
8 359 353 344 357 346 323 308 289 283 281 277 272 266 258 255 255 251 251 246 244 244 244 247 250 247 246 245 244 241 237 238 237 231 235 236 226 210 211 215 217 216 218
11 9 7 358 4 357 346 325 314 311 305 297 293 284 281 274 267 260 253 250 246 243 238 240 243 242 242 245 247 244 236 236 240 236 234 230 235 229 201 205 212 216 219
28 23 25 22 9 359 355 342 332 321 307 302 295 289 289 282 272 261 255 251 241 233 231 240 239 245 248 244 244 237 234 229 235 236 234 235 228 231 234 183 198 212 220
46 41 33 34 23 3 4 353 344 332 318 311 304 299 291 275 261 253 250 246 240 230 229 233 242 242 257 254 257 253 240 234 229 234 233 231 226 225 232 226 205 206 211
52 46 36 28 24 10 10 359 353 347 336 339 336 335 317 297 274 256 256 242 242 240 240 236 235 233 238 243 251 251 244 238 235 235 237 244 235 231 237 233 236 236 204
44 34 30 26 21 12 13 354 347 335 328 342 344 351 344 332 312 278 256 248 237 245 241 245 239 256 245 227 247 258 251 230 214 228 232 231 240 233 227 221 227 226 246
24 15 12 7 3 5 352 344 346 336 327 349 350 353 352 342 335 321 296 271 255 248 242 237 237 241 251 239 232 251 260 256 224 188 216 223 219 222 223 215 220 221 227
358 354 352 347 346 343 331 338 340 333 334 338 330 343 336 340 341 339 324 301 275 253 246 241 233 239 246 250 227 232 259 303 288 225 191 199 204 215 229 224 228 221 225
340 338 336 336 332 328 322 312 305 310 316 312 314 316 313 322 326 336 336 324 303 281 261 250 248 237 237 246 246 224 220 222 238 268 249 197 199 209 215 226 237 237 229
328 328 329 330 327 324 315 307 298 298 297 298 296 299 295 298 294 304 315 317 309 301 288 268 255 241 239 244 252 246 229 225 219 225 242 237 225 216 215 228 232 223 226